Other Public Products
Issued by NWS Charleston, SC

Home | Current Version | Previous Version | Text Only | Print | Product List | Glossary Off
Versions: 1 2 3 4 5 6 7 8 9 10 11 12 13 14 15 16 17 18 19 20 21 22 23 24 25 26 27 28 29 30 31 32 33 34 35 36 37 38 39 40 41 42 43 44 45 46 47 48 49 50

000
FPUS82 KCHS 221712
OPUCHS

TEST...KCHS/KSAV Gateway Observations...TEST
National Weather Service Charleston SC
1200 PM EST WED NOV 22 2017

NOTE: "fair" indicates few or no clouds below 12,000 feet with no
significant weather and/or obstructions to visibility.

SCZ050-WAZ558-NCZ071-TXZ119-213-PAZ071-DCZ001-FLZ074-172-MI076-
NYZ176-178-MAZ016-IL014-TNZ027-NJZ106-GAZ044-MD014-221800-

...Gateway Observations for Charleston International...

CITY           SKY/WX    TMP DP  RH WIND       PRES   REMARKS
Chas Airport   PTSUNNY   64  57  78 N10       30.01F
Seattle        MOSUNNY   59  56  89 S3        29.99R
Charlotte      MOSUNNY   63  43  48 N12       30.05F
Dallas DFW     PTSUNNY   48  22  35 N15       30.37F
Dallas Love    PTSUNNY   47  22  37 N10       30.38F
Philladelphia  MOSUNNY   57  37  47 NW17G30   29.91F
Wash National  MOSUNNY   56  33  42 NW24G33   30.01R
Baltimore      MOSUNNY   55  34  45 NW21G28   29.98R
Miami            N/A     84  63  49 VRB5      29.92F
Detroit        CLOUDY    33  17  51 NW8G16    30.29S WCI  26
Newark         LGT RAIN  52  48  86 NW7       29.89F
Laguardia      CLOUDY    52  45  77 NW10      29.88S
J F K          CLOUDY    53  47  79 NW9       29.89S
Boston Logan   LGT RAIN  50  50 100 E8        29.83F FOG
Ft. Lauderdale MOSUNNY   82  66  58 E16       29.92F
Chicago O`Hare MOSUNNY   30  15  53 VRB6      30.35F WCI  24
Chicago Midway MOSUNNY   30  15  53 W7        30.35F WCI  23
Houston Bush   MOSUNNY   64  49  57 N13       30.25F
Houston Hobby  MOSUNNY   65  52  62 N12       30.24S
Nashville      MOSUNNY   43  25  49 NE14      30.29F
Atlanta        PTSUNNY   59  39  47 NW13      30.09F

$$

GAZ044-118-TXZ119-213-NCZ071-DCZ001-MDZ014-506-PAZ021-071-NJZ106-
NYZ176-178-MAZ106-OHZ011-021-055-MIZ076-KYZ091-ILZ014-INZ047-
MNZ060-ONZ431-221800-

...Gateway Observations for Savannah International...

CITY           SKY/WX    TMP DP  RH WIND       PRES   REMARKS
Savannah Arpt  PTSUNNY   64  59  83 N5        30.02F
Atlanta        PTSUNNY   59  39  47 NW13      30.09F
Charlotte      MOSUNNY   63  43  48 N12       30.05F
Dallas DFW     PTSUNNY   48  22  35 N15       30.37F
Houston Bush   MOSUNNY   64  49  57 N13       30.25F
Wash National  MOSUNNY   56  33  42 NW24G33   30.01R
Wash Dulles    MOSUNNY   50  31  48 NW22G33   30.03R
Baltimore      MOSUNNY   55  34  45 NW21G28   29.98R
Philadelphia   MOSUNNY   57  37  47 NW17G30   29.91F
Newark         LGT RAIN  52  48  86 NW7       29.89F
Laguardia      CLOUDY    52  45  77 NW10      29.88S
J F K          CLOUDY    53  47  79 NW9       29.89S
Boston         LGT RAIN  50  50 100 E8        29.83F FOG
Pittsburg      CLOUDY    34  28  79 NW10      30.19R WCI  26
Akron          CLOUDY    33  24  69 NW10      30.21S WCI  25
Cleveland      CLOUDY    34  22  61 NW13      30.27S WCI  25
Cincinnati     CLOUDY    36  26  67 N5        30.29F WCI  32
Columbus       CLOUDY    35  23  61 NW9       30.26F WCI  28
Detroit        CLOUDY    33  17  51 NW8G16    30.29S WCI  26
Chicago O`Hare MOSUNNY   30  15  53 VRB6      30.35F WCI  24
Minneapolis    CLOUDY    23  13  65 S9        30.27F WCI  13
Indianapolis   MOSUNNY   36  23  59 CALM      30.34F
Toronto Canada MOSUNNY   32  14  47 NW18      30.15F WCI  20

$$




USA.gov is the U.S. government's official web portal to all federal, state and local government web resources and services.